| time (UTC) | temp F | wind direction | speed MPH | gust MPH | rain 1hr in | rain 24hr in | rain mn in | humidity % | barometer mb |
| 20260507171520 | 62 | 360 | 2.0 | 10.0 | 0.00 | 0.25 | 0.15 | 80 | 1014.0 |
| 20260507170010 | 62 | 360 | 3.0 | 9.0 | 0.00 | 0.25 | 0.15 | 78 | 1014.3 |
| 20260507164509 | 62 | 360 | 3.0 | 9.0 | 0.00 | 0.27 | 0.15 | 78 | 1014.2 |
| 20260507163007 | 63 | 360 | 5.0 | 12.0 | 0.00 | 0.27 | 0.15 | 77 | 1014.2 |
| 20260507161508 | 63 | 360 | 3.0 | 6.0 | 0.00 | 0.27 | 0.15 | 79 | 1014.3 |
| 20260507160009 | 63 | 360 | 4.0 | 9.0 | 0.00 | 0.27 | 0.15 | 77 | 1014.2 |
| 20260507154508 | 63 | 360 | 3.0 | 10.0 | 0.00 | 0.28 | 0.15 | 76 | 1014.3 |
| 20260507153006 | 64 | 360 | 3.0 | 5.0 | 0.00 | 0.28 | 0.15 | 76 | 1014.3 |
| 20260507151506 | 64 | 360 | 3.0 | 5.0 | 0.00 | 0.28 | 0.15 | 76 | 1014.2 |
| 20260507150104 | 64 | 360 | 1.0 | 6.0 | 0.00 | 0.28 | 0.15 | 77 | 1014.4 |
| 20260507144505 | 64 | 360 | 0.0 | 3.0 | 0.00 | 0.28 | 0.15 | 79 | 1014.4 |
| 20260507143001 | 64 | 360 | 1.0 | 3.0 | 0.00 | 0.28 | 0.15 | 80 | 1014.3 |
| 20260507141501 | 65 | 360 | 1.0 | 3.0 | 0.00 | 0.28 | 0.15 | 80 | 1014.6 |
| 20260507140107 | 65 | 360 | 0.0 | 3.0 | 0.00 | 0.28 | 0.15 | 80 | 1014.7 |
| 20260507134600 | 64 | 360 | 0.0 | 3.0 | 0.00 | 0.28 | 0.15 | 81 | 1014.8 |
| 20260507133147 | 64 | 360 | 0.0 | 3.0 | 0.00 | 0.28 | 0.15 | 81 | 1014.9 |
| 20260507131600 | 64 | 360 | 0.0 | 0.0 | 0.00 | 0.28 | 0.15 | 81 | 1015.1 |
| 20260507130107 | 64 | 360 | 0.0 | 3.0 | 0.00 | 0.28 | 0.15 | 80 | 1015.2 |
| 20260507124606 | 64 | 360 | 0.0 | 3.0 | 0.00 | 0.28 | 0.15 | 80 | 1015.2 |
| 20260507123057 | 64 | 360 | 0.0 | 0.0 | 0.00 | 0.28 | 0.15 | 82 | 1015.0 |
| 20260507121556 | 64 | 360 | 0.0 | 0.0 | 0.00 | 0.28 | 0.15 | 80 | 1015.1 |
| 20260507120056 | 65 | 360 | 1.0 | 5.0 | 0.00 | 0.28 | 0.15 | 82 | 1015.2 |
| 20260507114655 | 65 | 360 | 0.0 | 0.0 | 0.00 | 0.28 | 0.15 | 80 | 1015.0 |
| 20260507113054 | 65 | 360 | 0.0 | 0.0 | 0.00 | 0.28 | 0.15 | 78 | 1015.0 |
| 20260507111555 | 65 | 360 | 1.0 | 5.0 | 0.00 | 0.28 | 0.15 | 80 | 1015.1 |
| 20260507110050 | 64 | 360 | 1.0 | 4.0 | 0.00 | 0.28 | 0.15 | 82 | 1015.1 |
| 20260507104546 | 63 | 360 | 1.0 | 3.0 | 0.00 | 0.28 | 0.15 | 85 | 1015.1 |
| 20260507103048 | 62 | 360 | 0.0 | 6.0 | 0.00 | 0.28 | 0.15 | 85 | 1015.2 |
| 20260507101544 | 62 | 360 | 0.0 | 2.0 | 0.00 | 0.28 | 0.15 | 88 | 1015.2 |
| 20260507100038 | 61 | 360 | 0.0 | 3.0 | 0.00 | 0.28 | 0.15 | 90 | 1015.3 |
| 20260507094539 | 60 | 360 | 2.0 | 4.0 | 0.00 | 0.28 | 0.15 | 90 | 1015.4 |
| 20260507093031 | 60 | 360 | 0.0 | 3.0 | 0.00 | 0.28 | 0.15 | 92 | 1015.3 |
| 20260507091533 | 59 | 360 | 2.0 | 5.0 | 0.00 | 0.28 | 0.15 | 92 | 1015.2 |
| 20260507090028 | 59 | 360 | 2.0 | 5.0 | 0.00 | 0.28 | 0.15 | 92 | 1015.1 |
| 20260507084525 | 58 | 360 | 3.0 | 6.0 | 0.00 | 0.28 | 0.15 | 93 | 1015.1 |
| 20260507083024 | 58 | 360 | 3.0 | 6.0 | 0.01 | 0.28 | 0.15 | 94 | 1014.9 |
| 20260507081525 | 57 | 360 | 2.0 | 3.0 | 0.01 | 0.28 | 0.15 | 94 | 1014.9 |
| 20260507080020 | 57 | 360 | 0.0 | 2.0 | 0.02 | 0.28 | 0.15 | 95 | 1014.8 |
| 20260507074519 | 57 | 360 | 1.0 | 4.0 | 0.02 | 0.28 | 0.15 | 94 | 1014.9 |
| 20260507073018 | 57 | 360 | 0.0 | 5.0 | 0.02 | 0.28 | 0.14 | 94 | 1014.8 |
| 20260507071519 | 57 | 360 | 0.0 | 4.0 | 0.03 | 0.28 | 0.14 | 94 | 1014.7 |
| 20260507070027 | 57 | 360 | 1.0 | 3.0 | 0.03 | 0.27 | 0.13 | 94 | 1014.8 |
| 20260507064517 | 57 | 360 | 1.0 | 4.0 | 0.03 | 0.26 | 0.13 | 94 | 1014.7 |
| 20260507063012 | 57 | 360 | 2.0 | 9.0 | 0.02 | 0.25 | 0.12 | 93 | 1014.4 |
| 20260507061512 | 57 | 360 | 1.0 | 5.0 | 0.02 | 0.24 | 0.11 | 94 | 1014.4 |
| 20260507060013 | 56 | 360 | 0.0 | 3.0 | 0.06 | 0.24 | 0.10 | 95 | 1014.2 |
| 20260507054511 | 56 | 360 | 1.0 | 4.0 | 0.09 | 0.23 | 0.09 | 94 | 1014.0 |
| 20260507053007 | 56 | 360 | 0.0 | 5.0 | 0.09 | 0.23 | 0.09 | 93 | 1014.0 |
| 20260507051504 | 56 | 360 | 0.0 | 2.0 | 0.09 | 0.23 | 0.09 | 93 | 1013.9 |
| 20260507050010 | 57 | 360 | 1.0 | 3.0 | 0.02 | 0.16 | 0.02 | 91 | 1014.0 |
| 20260507044628 | 56 | 360 | 1.0 | 3.0 | 0.00 | 0.13 | 0.00 | 92 | 1013.4 |
| 20260507043058 | 55 | 360 | 1.0 | 4.0 | 0.00 | 0.13 | 0.00 | 95 | 1013.1 |
| 20260507041555 | 55 | 360 | 0.0 | 0.0 | 0.00 | 0.13 | 0.00 | 95 | 1012.9 |
| 20260507040058 | 55 | 360 | 0.0 | 1.0 | 0.00 | 0.13 | 0.00 | 95 | 1012.8 |
| 20260507034556 | 55 | 360 | 0.0 | 3.0 | 0.00 | 0.13 | 0.00 | 95 | 1012.5 |
| 20260507033104 | 55 | 360 | 0.0 | 0.0 | 0.00 | 0.13 | 0.00 | 95 | 1012.6 |
| 20260507031559 | 55 | 360 | 0.0 | 0.0 | 0.00 | 0.13 | 0.00 | 95 | 1012.6 |
| 20260507030106 | 56 | 360 | 1.0 | 4.0 | 0.00 | 0.13 | 0.00 | 95 | 1012.6 |
| 20260507024606 | 56 | 360 | 0.0 | 3.0 | 0.00 | 0.13 | 0.00 | 95 | 1012.5 |
| 20260507023048 | 56 | 360 | 0.0 | 0.0 | 0.00 | 0.13 | 0.00 | 95 | 1012.3 |
| 20260507021554 | 56 | 360 | 0.0 | 2.0 | 0.00 | 0.13 | 0.00 | 95 | 1012.4 |
| 20260507020056 | 55 | 360 | 0.0 | 1.0 | 0.00 | 0.13 | 0.00 | 95 | 1012.3 |
| 20260507014554 | 55 | 360 | 0.0 | 1.0 | 0.00 | 0.13 | 0.00 | 95 | 1012.3 |
| 20260507013045 | 56 | 360 | 0.0 | 2.0 | 0.00 | 0.13 | 0.00 | 95 | 1012.1 |
| 20260507011548 | 56 | 360 | 0.0 | 4.0 | 0.00 | 0.13 | 0.00 | 95 | 1012.1 |
| 20260507010046 | 56 | 360 | 0.0 | 0.0 | 0.00 | 0.13 | 0.00 | 95 | 1012.1 |
| 20260507004542 | 56 | 360 | 1.0 | 3.0 | 0.00 | 0.13 | 0.00 | 94 | 1012.0 |
| 20260507003040 | 57 | 360 | 0.0 | 0.0 | 0.00 | 0.13 | 0.00 | 95 | 1012.1 |
| 20260507001539 | 57 | 360 | 0.0 | 3.0 | 0.00 | 0.13 | 0.00 | 94 | 1012.0 |
| 20260507000037 | 57 | 360 | 1.0 | 3.0 | 0.00 | 0.13 | 0.00 | 94 | 1012.1 |
| 20260506234545 | 58 | 360 | 0.0 | 3.0 | 0.00 | 0.13 | 0.00 | 94 | 1012.0 |
| 20260506233032 | 58 | 360 | 0.0 | 4.0 | 0.00 | 0.13 | 0.00 | 94 | 1012.1 |
| 20260506231533 | 59 | 360 | 0.0 | 0.0 | 0.00 | 0.13 | 0.00 | 94 | 1012.2 |
| 20260506230028 | 59 | 360 | 0.0 | 0.0 | 0.00 | 0.13 | 0.00 | 95 | 1012.2 |
| 20260506224527 | 60 | 360 | 0.0 | 0.0 | 0.00 | 0.13 | 0.00 | 95 | 1012.1 |
| 20260506223026 | 60 | 360 | 0.0 | 0.0 | 0.00 | 0.13 | 0.00 | 96 | 1012.0 |
| 20260506221525 | 60 | 360 | 0.0 | 2.0 | 0.00 | 0.13 | 0.00 | 96 | 1012.2 |
| 20260506220023 | 60 | 360 | 0.0 | 0.0 | 0.00 | 0.13 | 0.00 | 96 | 1012.2 |
| 20260506214523 | 60 | 360 | 0.0 | 2.0 | 0.00 | 0.13 | 0.13 | 96 | 1012.3 |
| 20260506213022 | 60 | 360 | 0.0 | 2.0 | 0.00 | 0.13 | 0.13 | 95 | 1012.4 |
| 20260506211524 | 60 | 360 | 0.0 | 4.0 | 0.00 | 0.13 | 0.13 | 95 | 1012.4 |
| 20260506210026 | 60 | 360 | 2.0 | 4.0 | 0.00 | 0.13 | 0.13 | 95 | 1012.3 |
| 20260506204520 | 61 | 360 | 2.0 | 3.0 | 0.00 | 0.13 | 0.13 | 94 | 1012.3 |
| 20260506203023 | 61 | 360 | 0.0 | 1.0 | 0.00 | 0.13 | 0.13 | 94 | 1012.3 |
| 20260506201520 | 61 | 360 | 0.0 | 4.0 | 0.01 | 0.13 | 0.13 | 94 | 1012.4 |
| 20260506200019 | 61 | 360 | 2.0 | 4.0 | 0.02 | 0.13 | 0.13 | 94 | 1012.4 |
| 20260506194519 | 61 | 360 | 0.0 | 0.0 | 0.06 | 0.13 | 0.13 | 93 | 1012.3 |
| 20260506193018 | 62 | 360 | 0.0 | 0.0 | 0.06 | 0.13 | 0.13 | 93 | 1012.2 |
| 20260506191518 | 62 | 360 | 0.0 | 4.0 | 0.05 | 0.13 | 0.13 | 92 | 1012.1 |
| 20260506190018 | 62 | 360 | 1.0 | 4.0 | 0.09 | 0.12 | 0.12 | 91 | 1012.3 |
| 20260506184516 | 62 | 360 | 3.0 | 8.0 | 0.05 | 0.08 | 0.08 | 90 | 1012.4 |
| 20260506183015 | 63 | 360 | 0.0 | 6.0 | 0.05 | 0.08 | 0.08 | 91 | 1012.1 |
| 20260506181514 | 64 | 360 | 0.0 | 0.0 | 0.05 | 0.08 | 0.08 | 89 | 1011.0 |
| 20260506180014 | 64 | 360 | 0.0 | 0.0 | 0.00 | 0.03 | 0.03 | 88 | 1010.7 |
| 20260506174513 | 64 | 360 | 0.0 | 0.0 | 0.00 | 0.03 | 0.03 | 87 | 1010.2 |
| 20260506173018 | 65 | 360 | 0.0 | 0.0 | 0.00 | 0.03 | 0.03 | 87 | 1010.2 |